Location: Azul
(36.7830°S, 59.8500°W)
Time: 09:53:59
(UTC-03:00)

RS-44 - Visible Passes

Search period start: 22 October 2021 00:00
Search period end: 01 November 2021 00:00
Orbit: 1174 x 1511 km, 82.5° (Epoch: 21 October)

Date Brightness Start Highest point End Pass type
(mag) Time Alt. Az. Time Alt. Az. Time Alt. Az.
22 Oct ? 01:35:04 10° SSW 01:40:31 29° WSW 01:40:31 29° WSW visible
22 Oct ? 22:13:49 10° SSE 22:18:43 16° ESE 22:19:06 16° ESE visible
23 Oct ? 00:04:33 10° S 00:11:41 62° S 00:11:41 62° S visible
23 Oct ? 02:00:05 10° SW 02:04:17 19° WSW 02:04:17 19° WSW visible
23 Oct ? 22:36:08 10° SSE 22:42:53 25° ESE 22:42:53 25° ESE visible
24 Oct ? 00:28:26 10° SSW 00:35:29 57° SW 00:35:29 57° SW visible
24 Oct ? 02:27:15 10° WSW 02:28:05 10° WSW 02:28:05 10° WSW visible
24 Oct ? 22:59:12 10° S 23:06:41 39° ESE 23:06:41 39° ESE visible
25 Oct ? 00:52:36 10° SSW 00:59:17 41° WSW 00:59:17 41° WSW visible
25 Oct ? 21:35:12 10° SE 21:36:07 10° ESE 21:37:02 10° ESE visible
25 Oct ? 23:22:39 10° S 23:30:30 58° SE 23:30:30 58° SE visible
26 Oct ? 01:17:08 10° SSW 01:23:06 27° WSW 01:23:06 27° WSW visible
26 Oct ? 21:55:06 10° SSE 22:00:46 18° ESE 22:01:43 18° ESE visible
26 Oct ? 23:46:22 10° S 23:54:19 74° S 23:54:19 74° S visible
27 Oct ? 01:42:25 10° SW 01:46:55 17° WSW 01:46:55 17° WSW visible
27 Oct ? 22:17:43 10° SSE 22:25:11 29° ESE 22:25:33 29° ESE visible
28 Oct ? 00:10:20 10° SSW 00:18:09 58° WSW 00:18:09 58° WSW visible
28 Oct ? 22:40:55 10° S 22:49:23 44° ESE 22:49:23 44° ESE visible
29 Oct ? 00:34:35 10° SSW 00:42:00 39° WSW 00:42:00 39° WSW visible
29 Oct ? 21:15:01 10° SE 21:18:14 12° ESE 21:20:39 11° ESE visible
29 Oct ? 23:04:26 10° S 23:13:15 68° ESE 23:13:15 68° ESE visible
30 Oct ? 00:59:17 10° SSW 01:05:51 25° W 01:05:51 25° W visible
30 Oct ? 21:36:31 10° SSE 21:42:49 21° ESE 21:44:31 20° E visible
30 Oct ? 23:28:14 10° S 23:37:07 82° W 23:37:07 82° W visible
31 Oct ? 01:24:57 10° SW 01:29:13 14° WSW 01:29:44 14° W visible
31 Oct ? 21:59:21 10° SSE 22:07:11 32° ESE 22:08:24 31° E visible
